Location: Frydek-Mistek
(49.6830°N, 18.3330°E)
Time: 05:26:19
(UTC+02:00)

ISS - Pass Details

Date: 24 May 2021
Orbit: 417 x 422 km, 51.6° (Epoch: 13 June)

Event Time Altitude Azimuth Distance (km) Brightness Sun altitude
Rises 21:23:09 0° 278° (W) 2,364 1.1 -6.6°
Reaches altitude 10° 21:25:16 10° 282° (WNW) 1,501 0.1 -6.9°
Maximum altitude 21:28:37 60° 4° (N) 484 -3.2 -7.3°
Drops below altitude 10° 21:31:57 10° 85° (E) 1,503 -1.3 -7.6°
Enters shadow 21:33:32 - 89° (E) 2,145 -0.6 -7.8°
